Year,Month,Day,Hour,Minute,Value (Times are PST for temperature in C)
2017,08,15,00,00,16.40
2017,08,15,00,01,16.40
2017,08,15,00,02,16.40
2017,08,15,00,03,16.40
2017,08,15,00,04,16.40
2017,08,15,00,05,16.40
2017,08,15,00,06,16.40
2017,08,15,00,07,16.40
2017,08,15,00,08,16.40
2017,08,15,00,09,16.40
2017,08,15,00,10,16.40
2017,08,15,00,11,16.40
2017,08,15,00,12,16.40
2017,08,15,00,13,16.40
2017,08,15,00,14,16.40
2017,08,15,00,15,16.40
2017,08,15,00,16,16.30
2017,08,15,00,17,16.30
2017,08,15,00,18,16.30
2017,08,15,00,19,16.30
2017,08,15,00,20,16.40
2017,08,15,00,21,16.40
2017,08,15,00,22,16.40
2017,08,15,00,23,16.40
2017,08,15,00,24,16.40
2017,08,15,00,25,16.40
2017,08,15,00,26,16.40
2017,08,15,00,27,16.40
2017,08,15,00,28,16.40
2017,08,15,00,29,16.40
2017,08,15,00,30,16.40
2017,08,15,00,31,16.40
2017,08,15,00,32,16.40
2017,08,15,00,33,16.40
2017,08,15,00,34,16.40
2017,08,15,00,35,16.40
2017,08,15,00,36,16.40
2017,08,15,00,37,16.40
2017,08,15,00,38,16.40
2017,08,15,00,39,16.40
2017,08,15,00,40,16.40
2017,08,15,00,41,16.40
2017,08,15,00,42,16.30
2017,08,15,00,43,16.30
2017,08,15,00,44,16.30
2017,08,15,00,45,16.30
2017,08,15,00,46,16.30
2017,08,15,00,47,16.30
2017,08,15,00,48,16.30
2017,08,15,00,49,16.30
2017,08,15,00,50,16.30
2017,08,15,00,51,16.30
2017,08,15,00,52,16.30
2017,08,15,00,53,16.30
2017,08,15,00,54,16.30
2017,08,15,00,55,16.30
2017,08,15,00,56,16.30
2017,08,15,00,57,16.30
2017,08,15,00,58,16.30
2017,08,15,00,59,16.30
2017,08,15,01,00,16.30
2017,08,15,01,01,16.20
2017,08,15,01,02,16.20
2017,08,15,01,03,16.20
2017,08,15,01,04,16.20
2017,08,15,01,05,16.20
2017,08,15,01,06,16.20
2017,08,15,01,07,16.20
2017,08,15,01,08,16.20
2017,08,15,01,09,16.20
2017,08,15,01,10,16.20
2017,08,15,01,11,16.20
2017,08,15,01,12,16.20
2017,08,15,01,13,16.20
2017,08,15,01,14,16.20
2017,08,15,01,15,16.20
2017,08,15,01,16,16.20
2017,08,15,01,17,16.20
2017,08,15,01,18,16.10
2017,08,15,01,19,16.10
2017,08,15,01,20,16.10
2017,08,15,01,21,16.10
2017,08,15,01,22,16.10
2017,08,15,01,23,16.10
2017,08,15,01,24,16.10
2017,08,15,01,25,16.10
2017,08,15,01,26,16.10
2017,08,15,01,27,16.10
2017,08,15,01,28,16.10
2017,08,15,01,29,16.10
2017,08,15,01,30,16.00
2017,08,15,01,31,16.00
2017,08,15,01,32,16.00
2017,08,15,01,33,16.00
2017,08,15,01,34,16.00
2017,08,15,01,35,16.00
2017,08,15,01,36,15.90
2017,08,15,01,37,15.90
2017,08,15,01,38,15.90
2017,08,15,01,39,15.90
2017,08,15,01,40,15.90
2017,08,15,01,41,15.90
2017,08,15,01,42,15.90
2017,08,15,01,43,15.90
2017,08,15,01,44,15.90
2017,08,15,01,45,15.90
2017,08,15,01,46,15.90
2017,08,15,01,47,15.90
2017,08,15,01,48,15.90
2017,08,15,01,49,15.90
2017,08,15,01,50,15.80
2017,08,15,01,51,15.80
2017,08,15,01,52,15.80
2017,08,15,01,53,15.80
2017,08,15,01,54,15.80
2017,08,15,01,55,15.80
2017,08,15,01,56,15.80
2017,08,15,01,57,15.80
2017,08,15,01,58,15.80
2017,08,15,01,59,15.80
2017,08,15,02,00,15.80
2017,08,15,02,01,15.80
2017,08,15,02,02,15.80
2017,08,15,02,03,15.70
2017,08,15,02,04,15.70
2017,08,15,02,05,15.70
2017,08,15,02,06,15.70
2017,08,15,02,07,15.70
2017,08,15,02,08,15.70
2017,08,15,02,09,15.70
2017,08,15,02,10,15.70
2017,08,15,02,11,15.70
2017,08,15,02,12,15.70
2017,08,15,02,13,15.70
2017,08,15,02,14,15.60
2017,08,15,02,15,15.60
2017,08,15,02,16,15.60
2017,08,15,02,17,15.60
2017,08,15,02,18,15.60
2017,08,15,02,19,15.60
2017,08,15,02,20,15.60
2017,08,15,02,21,15.60
2017,08,15,02,22,15.60
2017,08,15,02,23,15.60
2017,08,15,02,24,15.60
2017,08,15,02,25,15.60
2017,08,15,02,26,15.50
2017,08,15,02,27,15.50
2017,08,15,02,28,15.50
2017,08,15,02,29,15.50
2017,08,15,02,30,15.50
2017,08,15,02,31,15.50
2017,08,15,02,32,15.50
2017,08,15,02,33,15.50
2017,08,15,02,34,15.50
2017,08,15,02,35,15.50
2017,08,15,02,36,15.50
2017,08,15,02,37,15.50
2017,08,15,02,38,15.50
2017,08,15,02,39,15.40
2017,08,15,02,40,15.40
2017,08,15,02,41,15.40
2017,08,15,02,42,15.40
2017,08,15,02,43,15.40
2017,08,15,02,44,15.40
2017,08,15,02,45,15.40
2017,08,15,02,46,15.40
2017,08,15,02,47,15.40
2017,08,15,02,48,15.40
2017,08,15,02,49,15.40
2017,08,15,02,50,15.40
2017,08,15,02,51,15.40
2017,08,15,02,52,15.40
2017,08,15,02,53,15.40
2017,08,15,02,54,15.40
2017,08,15,02,55,15.40
2017,08,15,02,56,15.40
2017,08,15,02,57,15.40
2017,08,15,02,58,15.40
2017,08,15,02,59,15.40
2017,08,15,03,00,15.40
2017,08,15,03,01,15.40
2017,08,15,03,02,15.40
2017,08,15,03,03,15.40
2017,08,15,03,04,15.30
2017,08,15,03,05,15.30
2017,08,15,03,06,15.30
2017,08,15,03,07,15.30
2017,08,15,03,08,15.30
2017,08,15,03,09,15.30
2017,08,15,03,10,15.30
2017,08,15,03,11,15.30
2017,08,15,03,12,15.30
2017,08,15,03,13,15.30
2017,08,15,03,14,15.30
2017,08,15,03,15,15.30
2017,08,15,03,16,15.30
2017,08,15,03,17,15.30
2017,08,15,03,18,15.30
2017,08,15,03,19,15.30
2017,08,15,03,20,15.30
2017,08,15,03,21,15.30
2017,08,15,03,22,15.30
2017,08,15,03,23,15.30
2017,08,15,03,24,15.30
2017,08,15,03,25,15.20
2017,08,15,03,26,15.20
2017,08,15,03,27,15.20
2017,08,15,03,28,15.20
2017,08,15,03,29,15.20
2017,08,15,03,30,15.20
2017,08,15,03,31,15.20
2017,08,15,03,32,15.20
2017,08,15,03,33,15.20
2017,08,15,03,34,15.20
2017,08,15,03,35,15.10
2017,08,15,03,36,15.10
2017,08,15,03,37,15.10
2017,08,15,03,38,15.10
2017,08,15,03,39,15.10
2017,08,15,03,40,15.10
2017,08,15,03,41,15.10
2017,08,15,03,42,15.10
2017,08,15,03,43,15.10
2017,08,15,03,44,15.10
2017,08,15,03,45,15.10
2017,08,15,03,46,15.10
2017,08,15,03,47,15.10
2017,08,15,03,48,15.10
2017,08,15,03,49,15.10
2017,08,15,03,50,15.10
2017,08,15,03,51,15.10
2017,08,15,03,52,15.10
2017,08,15,03,53,15.10
2017,08,15,03,54,15.10
2017,08,15,03,55,15.10
2017,08,15,03,56,15.10
2017,08,15,03,57,15.10
2017,08,15,03,58,15.10
2017,08,15,03,59,15.10
2017,08,15,04,00,15.10
2017,08,15,04,01,15.10
2017,08,15,04,02,15.10
2017,08,15,04,03,15.10
2017,08,15,04,04,15.10
2017,08,15,04,05,15.00
2017,08,15,04,06,15.00
2017,08,15,04,07,15.00
2017,08,15,04,08,15.00
2017,08,15,04,09,15.00
2017,08,15,04,10,15.00
2017,08,15,04,11,15.00
2017,08,15,04,12,15.00
2017,08,15,04,13,15.00
2017,08,15,04,14,15.00
2017,08,15,04,15,15.00
2017,08,15,04,16,15.00
2017,08,15,04,17,15.00
2017,08,15,04,18,15.00
2017,08,15,04,19,15.00
2017,08,15,04,20,14.90
2017,08,15,04,21,14.90
2017,08,15,04,22,14.90
2017,08,15,04,23,14.90
2017,08,15,04,24,14.90
2017,08,15,04,25,14.90
2017,08,15,04,26,14.90
2017,08,15,04,27,14.90
2017,08,15,04,28,14.90
2017,08,15,04,29,14.90
2017,08,15,04,30,14.90
2017,08,15,04,31,14.90
2017,08,15,04,32,14.90
2017,08,15,04,33,14.90
2017,08,15,04,34,14.90
2017,08,15,04,35,14.90
2017,08,15,04,36,14.90
2017,08,15,04,37,14.90
2017,08,15,04,38,14.80
2017,08,15,04,39,14.80
2017,08,15,04,40,14.80
2017,08,15,04,41,14.80
2017,08,15,04,42,14.80
2017,08,15,04,43,14.80
2017,08,15,04,44,14.80
2017,08,15,04,45,14.80
2017,08,15,04,46,14.80
2017,08,15,04,47,14.80
2017,08,15,04,48,14.80
2017,08,15,04,49,14.80
2017,08,15,04,50,14.80
2017,08,15,04,51,14.80
2017,08,15,04,52,14.80
2017,08,15,04,53,14.80
2017,08,15,04,54,14.80
2017,08,15,04,55,14.80
2017,08,15,04,56,14.80
2017,08,15,04,57,14.80
2017,08,15,04,58,14.80
2017,08,15,04,59,14.70
2017,08,15,05,00,14.70
2017,08,15,05,01,14.70
2017,08,15,05,02,14.70
2017,08,15,05,03,14.70
2017,08,15,05,04,14.70
2017,08,15,05,05,14.70
2017,08,15,05,06,14.70
2017,08,15,05,07,14.70
2017,08,15,05,08,14.70
2017,08,15,05,09,14.70
2017,08,15,05,10,14.70
2017,08,15,05,11,14.70
2017,08,15,05,12,14.70
2017,08,15,05,13,14.70
2017,08,15,05,14,14.70
2017,08,15,05,15,14.60
2017,08,15,05,16,14.60
2017,08,15,05,17,14.60
2017,08,15,05,18,14.60
2017,08,15,05,19,14.60
2017,08,15,05,20,14.60
2017,08,15,05,21,14.60
2017,08,15,05,22,14.60
2017,08,15,05,23,14.60
2017,08,15,05,24,14.60
2017,08,15,05,25,14.60
2017,08,15,05,26,14.60
2017,08,15,05,27,14.60
2017,08,15,05,28,14.60
2017,08,15,05,29,14.60
2017,08,15,05,30,14.60
2017,08,15,05,31,14.60
2017,08,15,05,32,14.60
2017,08,15,05,33,14.60
2017,08,15,05,34,14.60
2017,08,15,05,35,14.60
2017,08,15,05,36,14.60
2017,08,15,05,37,14.60
2017,08,15,05,38,14.60
2017,08,15,05,39,14.60
2017,08,15,05,40,14.60
2017,08,15,05,41,14.60
2017,08,15,05,42,14.60
2017,08,15,05,43,14.60
2017,08,15,05,44,14.60
2017,08,15,05,45,14.50
2017,08,15,05,46,14.50
2017,08,15,05,47,14.50
2017,08,15,05,48,14.50
2017,08,15,05,49,14.50
2017,08,15,05,50,14.50
2017,08,15,05,51,14.50
2017,08,15,05,52,14.50
2017,08,15,05,53,14.50
2017,08,15,05,54,14.50
2017,08,15,05,55,14.50
2017,08,15,05,56,14.50
2017,08,15,05,57,14.40
2017,08,15,05,58,14.40
2017,08,15,05,59,14.40
2017,08,15,06,00,14.40
2017,08,15,06,01,14.40
2017,08,15,06,02,14.40
2017,08,15,06,03,14.40
2017,08,15,06,04,14.40
2017,08,15,06,05,14.40
2017,08,15,06,06,14.40
2017,08,15,06,07,14.40
2017,08,15,06,08,14.40
2017,08,15,06,09,14.40
2017,08,15,06,10,14.40
2017,08,15,06,11,14.40
2017,08,15,06,12,14.40
2017,08,15,06,13,14.40
2017,08,15,06,14,14.40
2017,08,15,06,15,14.40
2017,08,15,06,16,14.40
2017,08,15,06,17,14.40
2017,08,15,06,18,14.40
2017,08,15,06,19,14.40
2017,08,15,06,20,14.40
2017,08,15,06,21,14.40
2017,08,15,06,22,14.40
2017,08,15,06,23,14.40
2017,08,15,06,24,14.40
2017,08,15,06,25,14.40
2017,08,15,06,26,14.40
2017,08,15,06,27,14.40
2017,08,15,06,28,14.40
2017,08,15,06,29,14.40
2017,08,15,06,30,14.40
2017,08,15,06,31,14.40
2017,08,15,06,32,14.40
2017,08,15,06,33,14.40
2017,08,15,06,34,14.40
2017,08,15,06,35,14.40
2017,08,15,06,36,14.30
2017,08,15,06,37,14.30
2017,08,15,06,38,14.30
2017,08,15,06,39,14.30
2017,08,15,06,40,14.30
2017,08,15,06,41,14.30
2017,08,15,06,42,14.30
2017,08,15,06,43,14.30
2017,08,15,06,44,14.30
2017,08,15,06,45,14.30
2017,08,15,06,46,14.30
2017,08,15,06,47,14.30
2017,08,15,06,48,14.30
2017,08,15,06,49,14.30
2017,08,15,06,50,14.30
2017,08,15,06,51,14.30
2017,08,15,06,52,14.30
2017,08,15,06,53,14.30
2017,08,15,06,54,14.40
2017,08,15,06,55,14.40
2017,08,15,06,56,14.40
2017,08,15,06,57,14.40
2017,08,15,06,58,14.40
2017,08,15,06,59,14.40
2017,08,15,07,00,14.40
2017,08,15,07,01,14.40
2017,08,15,07,02,14.40
2017,08,15,07,03,14.40
2017,08,15,07,04,14.40
2017,08,15,07,05,14.40
2017,08,15,07,06,14.40
2017,08,15,07,07,14.40
2017,08,15,07,08,14.40
2017,08,15,07,09,14.40
2017,08,15,07,10,14.40
2017,08,15,07,11,14.40
2017,08,15,07,12,14.40
2017,08,15,07,13,14.40
2017,08,15,07,14,14.40
2017,08,15,07,15,14.50
2017,08,15,07,16,14.50
2017,08,15,07,17,14.50
2017,08,15,07,18,14.50
2017,08,15,07,19,14.50
2017,08,15,07,20,14.50
2017,08,15,07,21,14.60
2017,08,15,07,22,14.60
2017,08,15,07,23,14.60
2017,08,15,07,24,14.60
2017,08,15,07,25,14.60
2017,08,15,07,26,14.60
2017,08,15,07,27,14.60
2017,08,15,07,28,14.60
2017,08,15,07,29,14.60
2017,08,15,07,30,14.60
2017,08,15,07,31,14.60
2017,08,15,07,32,14.60
2017,08,15,07,33,14.60
2017,08,15,07,34,14.60
2017,08,15,07,35,14.60
2017,08,15,07,36,14.60
2017,08,15,07,37,14.70
2017,08,15,07,38,14.70
2017,08,15,07,39,14.70
2017,08,15,07,40,14.70
2017,08,15,07,41,14.70
2017,08,15,07,42,14.70
2017,08,15,07,43,14.70
2017,08,15,07,44,14.70
2017,08,15,07,45,14.70
2017,08,15,07,46,14.70
2017,08,15,07,47,14.80
2017,08,15,07,48,14.80
2017,08,15,07,49,14.80
2017,08,15,07,50,14.80
2017,08,15,07,51,14.80
2017,08,15,07,52,14.90
2017,08,15,07,53,14.90
2017,08,15,07,54,14.90
2017,08,15,07,55,15.00
2017,08,15,07,56,15.00
2017,08,15,07,57,15.00
2017,08,15,07,58,15.10
2017,08,15,07,59,15.10
2017,08,15,08,00,15.10
2017,08,15,08,01,15.10
2017,08,15,08,02,15.10
2017,08,15,08,03,15.10
2017,08,15,08,04,15.10
2017,08,15,08,05,15.20
2017,08,15,08,06,15.20
2017,08,15,08,07,15.20
2017,08,15,08,08,15.30
2017,08,15,08,09,15.30
2017,08,15,08,10,15.30
2017,08,15,08,11,15.40
2017,08,15,08,12,15.40
2017,08,15,08,13,15.40
2017,08,15,08,14,15.40
2017,08,15,08,15,15.50
2017,08,15,08,16,15.50
2017,08,15,08,17,15.50
2017,08,15,08,18,15.50
2017,08,15,08,19,15.60
2017,08,15,08,20,15.60
2017,08,15,08,21,15.60
2017,08,15,08,22,15.60
2017,08,15,08,23,15.70
2017,08,15,08,24,15.70
2017,08,15,08,25,15.70
2017,08,15,08,26,15.70
2017,08,15,08,27,15.80
2017,08,15,08,28,15.80
2017,08,15,08,29,15.80
2017,08,15,08,30,15.80
2017,08,15,08,31,15.80
2017,08,15,08,32,15.90
2017,08,15,08,33,15.90
2017,08,15,08,34,15.90
2017,08,15,08,35,15.90
2017,08,15,08,36,16.00
2017,08,15,08,37,16.00
2017,08,15,08,38,16.00
2017,08,15,08,39,16.10
2017,08,15,08,40,16.10
2017,08,15,08,41,16.10
2017,08,15,08,42,16.00
2017,08,15,08,43,16.00
2017,08,15,08,44,16.00
2017,08,15,08,45,15.90
2017,08,15,08,46,15.90
2017,08,15,08,47,15.90
2017,08,15,08,48,15.80
2017,08,15,08,49,15.80
2017,08,15,08,50,15.80
2017,08,15,08,51,15.80
2017,08,15,08,52,15.80
2017,08,15,08,53,15.80
2017,08,15,08,54,15.70
2017,08,15,08,55,15.70
2017,08,15,08,56,15.70
2017,08,15,08,57,15.70
2017,08,15,08,58,15.70
2017,08,15,08,59,15.70
2017,08,15,09,00,15.70
2017,08,15,09,01,15.70
2017,08,15,09,02,15.70
2017,08,15,09,03,15.80
2017,08,15,09,04,15.80
2017,08,15,09,05,15.80
2017,08,15,09,06,15.80
2017,08,15,09,07,15.80
2017,08,15,09,08,15.80
2017,08,15,09,09,15.80
2017,08,15,09,10,15.90
2017,08,15,09,11,15.90
2017,08,15,09,12,16.00
2017,08,15,09,13,16.00
2017,08,15,09,14,16.10
2017,08,15,09,15,16.10
2017,08,15,09,16,16.10
2017,08,15,09,17,16.10
2017,08,15,09,18,16.10
2017,08,15,09,19,16.10
2017,08,15,09,20,16.20
2017,08,15,09,21,16.30
2017,08,15,09,22,16.30
2017,08,15,09,23,16.40
2017,08,15,09,24,16.40
2017,08,15,09,25,16.50
2017,08,15,09,26,16.50
2017,08,15,09,27,16.50
2017,08,15,09,28,16.60
2017,08,15,09,29,16.60
2017,08,15,09,30,16.70
2017,08,15,09,31,16.70
2017,08,15,09,32,16.70
2017,08,15,09,33,16.80
2017,08,15,09,34,16.80
2017,08,15,09,35,16.90
2017,08,15,09,36,16.90
2017,08,15,09,37,17.00
2017,08,15,09,38,17.00
2017,08,15,09,39,17.10
2017,08,15,09,40,17.20
2017,08,15,09,41,17.30
2017,08,15,09,42,17.30
2017,08,15,09,43,17.40
2017,08,15,09,44,17.40
2017,08,15,09,45,17.50
2017,08,15,09,46,17.50
2017,08,15,09,47,17.50
2017,08,15,09,48,17.60
2017,08,15,09,49,17.60
2017,08,15,09,50,17.70
2017,08,15,09,51,17.70
2017,08,15,09,52,17.70
2017,08,15,09,53,17.60
2017,08,15,09,54,17.70
2017,08,15,09,55,17.60
2017,08,15,09,56,17.60
2017,08,15,09,57,17.60
2017,08,15,09,58,17.70
2017,08,15,09,59,17.70
2017,08,15,10,00,17.60
2017,08,15,10,01,17.60
2017,08,15,10,02,17.60
2017,08,15,10,03,17.60
2017,08,15,10,04,17.50
2017,08,15,10,05,17.50
2017,08,15,10,06,17.40
2017,08,15,10,07,17.40
2017,08,15,10,08,17.30
2017,08,15,10,09,17.30
2017,08,15,10,10,17.20
2017,08,15,10,11,17.20
2017,08,15,10,12,17.20
2017,08,15,10,13,17.20
2017,08,15,10,14,17.20
2017,08,15,10,15,17.20
2017,08,15,10,16,17.30
2017,08,15,10,17,17.30
2017,08,15,10,18,17.40
2017,08,15,10,19,17.40
2017,08,15,10,20,17.30
2017,08,15,10,21,17.30
2017,08,15,10,22,17.40
2017,08,15,10,23,17.40
2017,08,15,10,24,17.40
2017,08,15,10,25,17.40
2017,08,15,10,26,17.40
2017,08,15,10,27,17.40
2017,08,15,10,28,17.40
2017,08,15,10,29,17.40
2017,08,15,10,30,17.40
2017,08,15,10,31,17.40
2017,08,15,10,32,17.40
2017,08,15,10,33,17.50
2017,08,15,10,34,17.50
2017,08,15,10,35,17.50
2017,08,15,10,36,17.50
2017,08,15,10,37,17.50
2017,08,15,10,38,17.50
2017,08,15,10,39,17.50
2017,08,15,10,40,17.50
2017,08,15,10,41,17.50
2017,08,15,10,42,17.50
2017,08,15,10,43,17.50
2017,08,15,10,44,17.60
2017,08,15,10,45,17.60
2017,08,15,10,46,17.60
2017,08,15,10,47,17.60
2017,08,15,10,48,17.60
2017,08,15,10,49,17.50
2017,08,15,10,50,17.60
2017,08,15,10,51,17.60
2017,08,15,10,52,17.60
2017,08,15,10,53,17.60
2017,08,15,10,54,17.60
2017,08,15,10,55,17.50
2017,08,15,10,56,17.60
2017,08,15,10,57,17.60
2017,08,15,10,58,17.60
2017,08,15,10,59,17.70
2017,08,15,11,00,17.70
2017,08,15,11,01,17.80
2017,08,15,11,02,17.80
2017,08,15,11,03,17.90
2017,08,15,11,04,17.90
2017,08,15,11,05,17.90
2017,08,15,11,06,17.90
2017,08,15,11,07,17.90
2017,08,15,11,08,18.00
2017,08,15,11,09,18.00
2017,08,15,11,10,18.00
2017,08,15,11,11,18.10
2017,08,15,11,12,18.10
2017,08,15,11,13,18.10
2017,08,15,11,14,18.10
2017,08,15,11,15,18.10
2017,08,15,11,16,18.10
2017,08,15,11,17,18.10
2017,08,15,11,18,18.20
2017,08,15,11,19,18.30
2017,08,15,11,20,18.30
2017,08,15,11,21,18.40
2017,08,15,11,22,18.40
2017,08,15,11,23,18.40
2017,08,15,11,24,18.40
2017,08,15,11,25,18.40
2017,08,15,11,26,18.40
2017,08,15,11,27,18.50
2017,08,15,11,28,18.40
2017,08,15,11,29,18.50
2017,08,15,11,30,18.60
2017,08,15,11,31,18.60
2017,08,15,11,32,18.60
2017,08,15,11,33,18.70
2017,08,15,11,34,18.60
2017,08,15,11,35,18.60
2017,08,15,11,36,18.50
2017,08,15,11,37,18.50
2017,08,15,11,38,18.50
2017,08,15,11,39,18.60
2017,08,15,11,40,18.60
2017,08,15,11,41,18.60
2017,08,15,11,42,18.60
2017,08,15,11,43,18.60
2017,08,15,11,44,18.60
2017,08,15,11,45,18.60
2017,08,15,11,46,18.70
2017,08,15,11,47,18.70
2017,08,15,11,48,18.60
2017,08,15,11,49,18.60
2017,08,15,11,50,18.60
2017,08,15,11,51,18.60
2017,08,15,11,52,18.60
2017,08,15,11,53,18.60
2017,08,15,11,54,18.60
2017,08,15,11,55,18.60
2017,08,15,11,56,18.60
2017,08,15,11,57,18.70
2017,08,15,11,58,18.80
2017,08,15,11,59,18.80
2017,08,15,12,00,18.90
2017,08,15,12,01,19.00
2017,08,15,12,02,19.10
2017,08,15,12,03,19.10
2017,08,15,12,04,19.10
2017,08,15,12,05,19.10
2017,08,15,12,06,19.10
2017,08,15,12,07,19.10
2017,08,15,12,08,19.10
2017,08,15,12,09,19.10
2017,08,15,12,10,19.20
2017,08,15,12,11,19.20
2017,08,15,12,12,19.20
2017,08,15,12,13,19.10
2017,08,15,12,14,19.10
2017,08,15,12,15,19.10
2017,08,15,12,16,19.10
2017,08,15,12,17,19.10
2017,08,15,12,18,19.10
2017,08,15,12,19,19.20
2017,08,15,12,20,19.20
2017,08,15,12,21,19.20
2017,08,15,12,22,19.30
2017,08,15,12,23,19.40
2017,08,15,12,24,19.50
2017,08,15,12,25,19.50
2017,08,15,12,26,19.60
2017,08,15,12,27,19.60
2017,08,15,12,28,19.60
2017,08,15,12,29,19.60
2017,08,15,12,30,19.70
2017,08,15,12,31,19.70
2017,08,15,12,32,19.70
2017,08,15,12,33,19.70
2017,08,15,12,34,19.70
2017,08,15,12,35,19.70
2017,08,15,12,36,19.70
2017,08,15,12,37,19.60
2017,08,15,12,38,19.60
2017,08,15,12,39,19.50
2017,08,15,12,40,19.40
2017,08,15,12,41,19.40
2017,08,15,12,42,19.40
2017,08,15,12,43,19.40
2017,08,15,12,44,19.40
2017,08,15,12,45,19.50
2017,08,15,12,46,19.50
2017,08,15,12,47,19.50
2017,08,15,12,48,19.50
2017,08,15,12,49,19.50
2017,08,15,12,50,19.50
2017,08,15,12,51,19.60
2017,08,15,12,52,19.70
2017,08,15,12,53,19.70
2017,08,15,12,54,19.80
2017,08,15,12,55,19.90
2017,08,15,12,56,20.00
2017,08,15,12,57,20.00
2017,08,15,12,58,20.10
2017,08,15,12,59,20.30
2017,08,15,13,00,20.30
2017,08,15,13,01,20.40
2017,08,15,13,02,20.40
2017,08,15,13,03,20.40
2017,08,15,13,04,20.40
2017,08,15,13,05,20.40
2017,08,15,13,06,20.50
2017,08,15,13,07,20.50
2017,08,15,13,08,20.50
2017,08,15,13,09,20.50
2017,08,15,13,10,20.50
2017,08,15,13,11,20.50
2017,08,15,13,12,20.40
2017,08,15,13,13,20.50
2017,08,15,13,14,20.50
2017,08,15,13,15,20.60
2017,08,15,13,16,20.70
2017,08,15,13,17,20.80
2017,08,15,13,18,20.80
2017,08,15,13,19,20.80
2017,08,15,14,06,17.30
2017,08,15,14,07,17.30
2017,08,15,14,08,17.30
2017,08,15,14,09,17.30
2017,08,15,14,10,17.30
2017,08,15,14,11,17.30
2017,08,15,14,12,17.30
2017,08,15,14,13,17.20
2017,08,15,14,14,17.20
2017,08,15,14,15,17.20
2017,08,15,14,16,17.20
2017,08,15,14,17,17.20
2017,08,15,14,18,17.20
2017,08,15,14,19,17.20
2017,08,15,14,20,17.20
2017,08,15,14,21,17.20
2017,08,15,14,22,17.20
2017,08,15,14,23,17.20
2017,08,15,14,24,17.20
2017,08,15,14,25,17.10
2017,08,15,14,26,17.10
2017,08,15,14,27,17.10
2017,08,15,14,28,17.10
2017,08,15,14,29,17.10
2017,08,15,14,30,17.00
2017,08,15,14,31,17.00
2017,08,15,14,32,17.00
2017,08,15,14,33,17.00
2017,08,15,14,34,17.00
2017,08,15,14,35,17.00
2017,08,15,14,36,17.00
2017,08,15,14,37,17.00
2017,08,15,14,38,16.90
2017,08,15,14,39,16.90
2017,08,15,14,40,16.90
2017,08,15,14,41,16.90
2017,08,15,14,42,16.90
2017,08,15,14,43,16.90
2017,08,15,14,44,16.90
2017,08,15,14,45,16.90
2017,08,15,14,46,16.90
2017,08,15,14,47,16.90
2017,08,15,14,48,16.90
2017,08,15,14,49,16.90
2017,08,15,14,50,16.90
2017,08,15,14,51,16.90
2017,08,15,14,52,16.90
2017,08,15,14,53,16.80
2017,08,15,14,54,16.80
2017,08,15,14,55,16.80
2017,08,15,14,56,16.80
2017,08,15,14,57,16.80
2017,08,15,14,58,16.80
2017,08,15,14,59,16.80
2017,08,15,15,00,16.80
2017,08,15,15,01,16.80
2017,08,15,15,02,16.70
2017,08,15,15,03,16.70
2017,08,15,15,04,16.70
2017,08,15,15,05,16.70
2017,08,15,15,06,16.70
2017,08,15,15,07,16.60
2017,08,15,15,08,16.60
2017,08,15,15,09,16.60
2017,08,15,15,10,16.60
2017,08,15,15,11,16.60
2017,08,15,15,12,16.60
2017,08,15,15,13,16.60
2017,08,15,15,14,16.50
2017,08,15,15,15,16.50
2017,08,15,15,16,16.50
2017,08,15,15,17,16.50
2017,08,15,15,18,16.40
2017,08,15,15,19,16.40
2017,08,15,15,20,16.40
2017,08,15,15,21,16.40
2017,08,15,15,22,16.30
2017,08,15,15,23,16.30
2017,08,15,15,24,16.30
2017,08,15,15,25,16.30
2017,08,15,15,26,16.30
2017,08,15,15,27,16.20
2017,08,15,15,28,16.20
2017,08,15,15,29,16.20
2017,08,15,15,30,16.20
2017,08,15,15,31,16.20
2017,08,15,15,32,16.20
2017,08,15,15,33,16.10
2017,08,15,15,34,16.10
2017,08,15,15,35,16.20
2017,08,15,15,36,16.20
2017,08,15,15,37,16.20
2017,08,15,15,38,16.20
2017,08,15,15,39,16.20
2017,08,15,15,40,16.20
2017,08,15,15,41,16.20
2017,08,15,15,42,16.20
2017,08,15,15,43,16.20
2017,08,15,15,44,16.20
2017,08,15,15,45,16.20
2017,08,15,15,46,16.10
2017,08,15,15,47,16.10
2017,08,15,15,48,16.10
2017,08,15,15,49,16.10
2017,08,15,15,50,16.00
2017,08,15,15,51,16.00
2017,08,15,15,52,16.00
2017,08,15,15,53,15.90
2017,08,15,15,54,15.90
2017,08,15,15,55,15.90
2017,08,15,15,56,15.90
2017,08,15,15,57,15.90
2017,08,15,15,58,15.90
2017,08,15,15,59,15.80
2017,08,15,16,00,15.80
2017,08,15,16,01,15.80
2017,08,15,16,02,15.80
2017,08,15,16,03,15.80
2017,08,15,16,04,15.80
2017,08,15,16,05,15.80
2017,08,15,16,06,15.70
2017,08,15,16,07,15.70
2017,08,15,16,08,15.70
2017,08,15,16,09,15.70
2017,08,15,16,10,15.70
2017,08,15,16,11,15.60
2017,08,15,16,12,15.60
2017,08,15,16,13,15.60
2017,08,15,16,14,15.50
2017,08,15,16,15,15.50
2017,08,15,16,16,15.50
2017,08,15,16,17,15.50
2017,08,15,16,18,15.40
2017,08,15,16,19,15.40
2017,08,15,16,20,15.40
2017,08,15,16,21,15.40
2017,08,15,16,22,15.30
2017,08,15,16,23,15.30
2017,08,15,16,24,15.30
2017,08,15,16,25,15.30
2017,08,15,16,26,15.30
2017,08,15,16,27,15.30
2017,08,15,16,28,15.20
2017,08,15,16,29,15.20
2017,08,15,16,30,15.20
2017,08,15,16,31,15.20
2017,08,15,16,32,15.20
2017,08,15,16,33,15.20
2017,08,15,16,34,15.20
2017,08,15,16,35,15.20
2017,08,15,16,36,15.20
2017,08,15,16,37,15.20
2017,08,15,16,38,15.20
2017,08,15,16,39,15.20
2017,08,15,16,40,15.20
2017,08,15,16,41,15.20
2017,08,15,16,42,15.20
2017,08,15,16,43,15.20
2017,08,15,16,44,15.20
2017,08,15,16,45,15.20
2017,08,15,16,46,15.20
2017,08,15,16,47,15.10
2017,08,15,16,48,15.10
2017,08,15,16,49,15.10
2017,08,15,16,50,15.10
2017,08,15,16,51,15.10
2017,08,15,16,52,15.10
2017,08,15,16,53,15.00
2017,08,15,16,54,15.00
2017,08,15,16,55,15.00
2017,08,15,16,56,14.90
2017,08,15,16,57,14.90
2017,08,15,16,58,14.90
2017,08,15,16,59,14.90
2017,08,15,17,00,14.90
2017,08,15,17,01,14.90
2017,08,15,17,02,14.90
2017,08,15,17,03,14.90
2017,08,15,17,04,14.90
2017,08,15,17,05,14.90
2017,08,15,17,06,14.90
2017,08,15,17,07,14.90
2017,08,15,17,08,14.90
2017,08,15,17,09,14.90
2017,08,15,17,10,14.90
2017,08,15,17,11,14.90
2017,08,15,17,12,14.90
2017,08,15,17,13,14.90
2017,08,15,17,14,14.90
2017,08,15,17,15,14.80
2017,08,15,17,16,14.80
2017,08,15,17,17,14.80
2017,08,15,17,18,14.80
2017,08,15,17,19,14.70
2017,08,15,17,20,14.70
2017,08,15,17,21,14.70
2017,08,15,17,22,14.70
2017,08,15,17,23,14.70
2017,08,15,17,24,14.70
2017,08,15,17,25,14.70
2017,08,15,17,26,14.70
2017,08,15,17,27,14.70
2017,08,15,17,28,14.70
2017,08,15,17,29,14.70
2017,08,15,17,30,14.60
2017,08,15,17,31,14.60
2017,08,15,17,32,14.60
2017,08,15,17,33,14.60
2017,08,15,17,34,14.60
2017,08,15,17,35,14.60
2017,08,15,17,36,14.60
2017,08,15,17,37,14.60
2017,08,15,17,38,14.50
2017,08,15,17,39,14.50
2017,08,15,17,40,14.50
2017,08,15,17,41,14.50
2017,08,15,17,42,14.50
2017,08,15,17,43,14.50
2017,08,15,17,44,14.50
2017,08,15,17,45,14.40
2017,08,15,17,46,14.40
2017,08,15,17,47,14.40
2017,08,15,17,48,14.40
2017,08,15,17,49,14.40
2017,08,15,17,50,14.40
2017,08,15,17,51,14.40
2017,08,15,17,52,14.40
2017,08,15,17,53,14.40
2017,08,15,17,54,14.40
2017,08,15,17,55,14.40
2017,08,15,17,56,14.50
2017,08,15,17,57,14.50
2017,08,15,17,58,14.50
2017,08,15,17,59,14.60
2017,08,15,18,00,14.60
2017,08,15,18,01,14.60
2017,08,15,18,02,14.60
2017,08,15,18,03,14.60
2017,08,15,18,04,14.60
2017,08,15,18,05,14.60